{"data":{"norad_id":65151,"intl_designator":"2025-171V","name":"KUIPER-00114","alt_names":[],"object_type":"PAYLOAD","status":"ACTIVE","operator":null,"country":"US","launch_date":"2025-08-11","launch_site_code":"AFETR","launch_vehicle":null,"mission":null,"orbit_class":"UNKNOWN","rcs_meters":null,"size_class":null,"mass_kg":null,"dimensions":null,"purposes":[],"wikipedia_slug":null,"has_3d_model":false,"image_url":null,"decayed_at":null,"tle_current":{"epoch":"2026-09-21T15:07:22.101888Z","epoch_age_seconds":67397,"freshness":"FRESH","line1":"1 65151U 25171V   26264.63011692  .00002071  00000+0  30058-3 0  9990","line2":"2 65151  51.9016  29.1416 0000211 110.9101 249.1884 14.79930368 61656","mean_motion":14.79930368,"eccentricity":2.11e-5,"inclination_deg":51.9016,"raan_deg":29.1416,"arg_perigee_deg":110.9101,"mean_anomaly_deg":249.1884,"bstar":0.00030058,"rev_number":6165,"period_min":97.301875219037,"perigee_km":629.39607569131,"apogee_km":629.69179982688,"semimajor_km":7007.6809377591,"source":"CELESTRAK","updated_at":"2026-09-22T09:00:30.157076Z"}}}